Weather History for Santa Maria, CA

Change the Weather History Date:

Wednesday, January 15, 2014

  Actual Average Record
Temperature  
Mean Temperature 64 °F 51 °F  
Max Temperature 87 °F 63 °F 87 °F (2014)
Min Temperature 41 °F 39 °F 25 °F (1928)
Degree Days  
Heating Degree Days 1 14  
Month to date heating degree days 105 210  
Since 1 July heating degree days 849 1282  
Cooling Degree Days 0 0  
Month to date cooling degree days 0 0  
Year to date cooling degree days 0 0  
Growing Degree Days 14 (Base 50)    
Moisture  
Dew Point 22 °F    
Average Humidity 24    
Maximum Humidity 42    
Minimum Humidity 6    
Precipitation  
Precipitation 0.00 in 0.09 in 1.78 in (1952)
Month to date precipitation 0.00 1.31  
Year to date precipitation 0.00 1.31  
Since 1 July precipitation 0.50 5.55  
Sea Level Pressure  
Sea Level Pressure 30.22 in    
Wind  
Wind Speed 3 mph (ESE)    
Max Wind Speed 15 mph    
Max Gust Speed 37 mph    
Visibility 10 miles    
Events      
T = Trace of Precipitation, MM = Missing Value Source: NWS Daily Summary

Daily Weather History Graph

Daily Weather History Graph

Search for Another Location

Airport:

Trip Planner

Search our weather history database for the weather conditions in past years. The results will help you decide how hot, cold, wet, or windy it might be!

Date:

Astronomy

Jan. 15, 2014 Rise Set
Actual Time 7:09 AM PST 5:13 PM PST
Civil Twilight 6:41 AM PST 5:41 PM PST
Nautical Twilight 6:10 AM PST 6:12 PM PST
Astronomical Twilight 5:40 AM PST 6:42 PM PST
Moon 5:13 PM PST (1/15) 6:30 AM PST (1/15)
Length of Visible Light 10h 59m
Length of Day
10h 04m
Full, 100% of the Moon is Illuminated
Jan 15
Full
Jan 15
Full
Jan 23
Last Quarter
Jan 30
New
Feb 6
First Quarter

Hourly Weather History & Observations

Time (PST) Temp. Windchill Dew Point Humidity Pressure Visibility Wind Dir Wind Speed Gust Speed Precip Events Conditions
12:51 AM 48.9 °F - 24.1 °F 38% 30.26 in 10.0 mi SSE 3.5 mph - N/A   Clear
1:51 AM 46.0 °F 44.8 °F 24.1 °F 42% 30.26 in 10.0 mi SE 3.5 mph - N/A   Clear
2:51 AM 46.9 °F - 23.0 °F 39% 30.25 in 10.0 mi Calm Calm - N/A   Clear
3:51 AM 46.9 °F - 21.9 °F 37% 30.25 in 10.0 mi Calm Calm - N/A   Clear
4:51 AM 46.0 °F - 23.0 °F 40% 30.25 in 10.0 mi Calm Calm - N/A   Clear
5:51 AM 45.0 °F 42.6 °F 23.0 °F 42% 30.25 in 10.0 mi ESE 4.6 mph - N/A   Clear
6:51 AM 45.0 °F 42.6 °F 23.0 °F 42% 30.25 in 10.0 mi SE 4.6 mph - N/A   Clear
7:51 AM 51.1 °F - 21.0 °F 31% 30.26 in 10.0 mi ESE 3.5 mph - N/A   Clear
8:51 AM 62.1 °F - 23.0 °F 22% 30.27 in 10.0 mi Calm Calm - N/A   Clear
9:51 AM 73.0 °F - 19.9 °F 14% 30.28 in 10.0 mi Calm Calm - N/A   Clear
10:51 AM 79.0 °F - 15.1 °F 9% 30.26 in 10.0 mi East 3.5 mph - N/A   Clear
11:51 AM 82.9 °F - 10.0 °F 6% 30.22 in 10.0 mi Calm Calm - N/A   Clear
12:51 PM 86.0 °F - 12.0 °F 6% 30.18 in 10.0 mi Variable 3.5 mph - N/A   Clear
1:51 PM 86.0 °F - 21.0 °F 9% 30.16 in 10.0 mi NW 9.2 mph - N/A   Clear
2:51 PM 81.0 °F - 21.0 °F 11% 30.15 in 10.0 mi NNW 15.0 mph - N/A   Clear
3:51 PM 73.9 °F - 27.0 °F 18% 30.17 in 10.0 mi NNW 6.9 mph - N/A   Clear
4:51 PM 71.1 °F - 19.9 °F 14% 30.17 in 10.0 mi Calm Calm - N/A   Clear
5:51 PM 61.0 °F - 28.0 °F 29% 30.18 in 10.0 mi West 3.5 mph - N/A   Clear
6:51 PM 57.0 °F - 30.0 °F 36% 30.18 in 10.0 mi Calm Calm - N/A   Clear
7:51 PM 54.0 °F - 24.1 °F 31% 30.19 in 10.0 mi SSE 4.6 mph - N/A   Clear
8:51 PM 52.0 °F - 21.0 °F 30% 30.18 in 10.0 mi ESE 5.8 mph - N/A   Clear
9:51 PM 53.1 °F - 23.0 °F 31% 30.18 in 10.0 mi East 4.6 mph - N/A   Clear
10:51 PM 48.9 °F - 23.0 °F 36% 30.18 in 10.0 mi Calm Calm - N/A   Clear
11:51 PM 48.9 °F - 19.9 °F 32% 30.17 in 10.0 mi Variable 3.5 mph 36.8 mph N/A   Clear